Starlink 35887

operational
NORAD ID: 66959 Int'l Des: 2025-288 Owner: SPXS Country: US Constellation: starlink
LEOCIRCULAR

Über Starlink 35887

Beschreibung wird geladen...

Live-Position

3D-Globus wird geladen...

Nächste Überflüge

Höhenverlauf

Altitude vs Time

uPlot chart will show altitude changes over time

Zweizeiliger Elementsatz

1 66959C 25288A 25346.10118056 -.01016900 00000+0 -19210-2 0 3461
2 66959 43.0034 171.8411 0001881 270.5888 135.1927 16.00791154 13
Epoch: 12. Dez. 2025 • Age: 56 hours

Aktueller Status

Höhe 286.0 km
Geschwindigkeit 7.74 km/s
Subsatellitenpunkt -16.35°S, 65.45°W
Startdatum 8. Dez. 2025
Alter 5 days
Typ internet

Technische Details

Klassifizierung Payload
Masse 575.00 kg
Trockenmasse 530.00 kg
Gesamtmasse 575.00 kg
Länge 0.30 m
Durchmesser 4.10 m
Spannweite 29.00 m
Form Box + pan
Hersteller SPXS
Bus-Typ Starlink V2MO
Phasenstatus In Orbit
Besitzer/Staat SPXS/US

Große Konstellationen

Loading constellations...